Wetterdaten: Freitag, 10.01.2014
Datum Zeit Temp. Auen Feucht Auen Luftdruck Regen Richtung Richtung Windben
10.01.2014 00:00 3,7 C 91 % 1013,3 hPa 0,0 mm W 275 3,2 km/h (1 Bft)
10.01.2014 00:05 3,7 C 91 % 1013,3 hPa 0,0 mm W 275 1,6 km/h (1 Bft)
10.01.2014 00:10 3,7 C 91 % 1013,4 hPa 0,0 mm W 275 1,6 km/h (1 Bft)
10.01.2014 00:15 3,8 C 91 % 1013,4 hPa 0,0 mm W 277 6,4 km/h (2 Bft)
10.01.2014 00:20 4,0 C 91 % 1013,4 hPa 0,0 mm W 273 4,8 km/h (1 Bft)
10.01.2014 00:25 4,1 C 91 % 1013,5 hPa 0,0 mm W-NW 283 4,8 km/h (1 Bft)
10.01.2014 00:30 4,1 C 91 % 1013,5 hPa 0,0 mm W 267 4,8 km/h (1 Bft)
10.01.2014 00:35 4,2 C 91 % 1013,6 hPa 0,0 mm W 275 4,8 km/h (1 Bft)
10.01.2014 00:40 4,4 C 91 % 1013,7 hPa 0,0 mm W 275 6,4 km/h (2 Bft)
10.01.2014 00:45 4,5 C 90 % 1013,6 hPa 0,0 mm W 267 6,4 km/h (2 Bft)
10.01.2014 00:50 4,7 C 90 % 1013,9 hPa 0,0 mm W 271 4,8 km/h (1 Bft)
10.01.2014 00:55 4,9 C 89 % 1013,9 hPa 0,0 mm W 273 6,4 km/h (2 Bft)
10.01.2014 01:00 5,3 C 88 % 1014,0 hPa 0,0 mm W-NW 286 8,0 km/h (2 Bft)
10.01.2014 01:05 6,2 C 85 % 1014,0 hPa 0,0 mm W 270 9,7 km/h (2 Bft)
10.01.2014 01:10 7,2 C 81 % 1014,2 hPa 0,0 mm W-NW 297 9,7 km/h (2 Bft)
10.01.2014 01:15 7,7 C 79 % 1014,3 hPa 0,0 mm W 271 9,7 km/h (2 Bft)
10.01.2014 01:20 8,1 C 77 % 1014,3 hPa 0,0 mm W 261 12,9 km/h (3 Bft)
10.01.2014 01:25 8,4 C 76 % 1014,3 hPa 0,0 mm W 267 16,1 km/h (3 Bft)
10.01.2014 01:30 8,6 C 75 % 1014,3 hPa 0,0 mm W 280 14,5 km/h (3 Bft)
10.01.2014 01:35 8,7 C 76 % 1014,5 hPa 0,0 mm W 278 12,9 km/h (3 Bft)
10.01.2014 01:40 8,8 C 76 % 1014,6 hPa 0,0 mm W 273 11,3 km/h (2 Bft)
10.01.2014 01:45 8,9 C 76 % 1014,6 hPa 0,0 mm W-SW 239 17,7 km/h (3 Bft)
10.01.2014 01:50 9,1 C 77 % 1014,7 hPa 0,0 mm W 274 22,5 km/h (4 Bft)
10.01.2014 01:55 9,1 C 79 % 1014,7 hPa 0,0 mm W-SW 241 22,5 km/h (4 Bft)
10.01.2014 02:00 8,9 C 80 % 1014,8 hPa 0,0 mm W-SW 257 16,1 km/h (3 Bft)
10.01.2014 02:05 8,8 C 81 % 1014,8 hPa 0,0 mm W-SW 252 20,9 km/h (4 Bft)
10.01.2014 02:10 8,7 C 83 % 1014,9 hPa 0,0 mm W 267 19,3 km/h (3 Bft)
10.01.2014 02:15 8,6 C 84 % 1015,1 hPa 0,2 mm W-SW 256 17,7 km/h (3 Bft)
10.01.2014 02:20 8,5 C 84 % 1015,7 hPa 0,0 mm NW 316 29,0 km/h (5 Bft)
10.01.2014 02:25 8,1 C 85 % 1015,8 hPa 0,0 mm W 270 24,1 km/h (4 Bft)
10.01.2014 02:30 7,6 C 86 % 1016,0 hPa 0,2 mm W-SW 244 22,5 km/h (4 Bft)
10.01.2014 02:35 7,2 C 87 % 1016,3 hPa 0,2 mm W 265 20,9 km/h (4 Bft)
10.01.2014 02:40 6,9 C 88 % 1016,3 hPa 0,0 mm W 274 27,4 km/h (4 Bft)
10.01.2014 02:45 6,7 C 89 % 1016,6 hPa 0,2 mm W 269 20,9 km/h (4 Bft)
10.01.2014 02:50 6,4 C 89 % 1016,9 hPa 0,2 mm W-SW 258 25,7 km/h (4 Bft)
10.01.2014 02:55 6,2 C 90 % 1017,2 hPa 0,4 mm W 263 19,3 km/h (3 Bft)
10.01.2014 03:00 6,0 C 90 % 1017,2 hPa 0,4 mm W 279 16,1 km/h (3 Bft)
10.01.2014 03:05 5,8 C 90 % 1017,1 hPa 0,2 mm W-SW 257 14,5 km/h (3 Bft)
10.01.2014 03:10 5,7 C 91 % 1017,2 hPa 0,4 mm W-SW 250 12,9 km/h (3 Bft)
10.01.2014 03:15 5,6 C 91 % 1017,3 hPa 0,2 mm W 269 9,7 km/h (2 Bft)
10.01.2014 03:20 5,4 C 92 % 1017,4 hPa 0,4 mm W-NW 287 6,4 km/h (2 Bft)
10.01.2014 03:25 5,4 C 92 % 1017,4 hPa 0,2 mm W 269 8,0 km/h (2 Bft)
10.01.2014 03:30 5,4 C 92 % 1017,4 hPa 0,2 mm W-SW 257 12,9 km/h (3 Bft)
10.01.2014 03:35 5,3 C 92 % 1017,4 hPa 0,0 mm W 271 12,9 km/h (3 Bft)
10.01.2014 03:40 5,2 C 92 % 1017,6 hPa 0,0 mm W-NW 283 14,5 km/h (3 Bft)
10.01.2014 03:45 5,1 C 92 % 1017,8 hPa 0,2 mm W 263 19,3 km/h (3 Bft)
10.01.2014 03:50 5,0 C 92 % 1017,9 hPa 0,2 mm W-SW 249 20,9 km/h (4 Bft)
10.01.2014 03:55 4,9 C 92 % 1017,9 hPa 0,2 mm W 278 16,1 km/h (3 Bft)
10.01.2014 04:00 4,7 C 92 % 1017,9 hPa 0,4 mm W-SW 258 16,1 km/h (3 Bft)
10.01.2014 04:05 4,6 C 92 % 1018,2 hPa 0,2 mm W 264 16,1 km/h (3 Bft)
10.01.2014 04:10 4,4 C 92 % 1018,3 hPa 0,2 mm W 270 11,3 km/h (2 Bft)
10.01.2014 04:15 4,3 C 92 % 1018,4 hPa 0,2 mm W 270 8,0 km/h (2 Bft)
10.01.2014 04:20 4,3 C 92 % 1018,3 hPa 0,0 mm W-NW 286 6,4 km/h (2 Bft)
10.01.2014 04:25 4,3 C 92 % 1018,4 hPa 0,2 mm W 264 6,4 km/h (2 Bft)
10.01.2014 04:30 4,3 C 92 % 1018,5 hPa 0,2 mm W 267 4,8 km/h (1 Bft)
10.01.2014 04:35 4,2 C 92 % 1018,5 hPa 0,0 mm W 271 6,4 km/h (2 Bft)
10.01.2014 04:40 4,2 C 92 % 1018,6 hPa 0,2 mm W 271 4,8 km/h (1 Bft)
10.01.2014 04:45 4,2 C 92 % 1018,6 hPa 0,0 mm W-NW 282 9,7 km/h (2 Bft)
10.01.2014 04:50 4,1 C 92 % 1018,6 hPa 0,2 mm W 273 12,9 km/h (3 Bft)
10.01.2014 04:55 4,1 C 92 % 1018,8 hPa 0,0 mm W 263 12,9 km/h (3 Bft)
10.01.2014 05:00 4,1 C 92 % 1018,9 hPa 0,2 mm W 277 11,3 km/h (2 Bft)
10.01.2014 05:05 4,1 C 92 % 1019,0 hPa 0,2 mm W 275 9,7 km/h (2 Bft)
10.01.2014 05:10 4,0 C 92 % 1018,9 hPa 0,0 mm W-NW 287 14,5 km/h (3 Bft)
10.01.2014 05:15 4,0 C 92 % 1019,2 hPa 0,2 mm W-NW 286 16,1 km/h (3 Bft)
10.01.2014 05:20 3,9 C 92 % 1019,2 hPa 0,2 mm W 276 17,7 km/h (3 Bft)
10.01.2014 05:25 3,9 C 92 % 1019,3 hPa 0,4 mm W 271 19,3 km/h (3 Bft)
10.01.2014 05:30 3,8 C 92 % 1019,4 hPa 0,0 mm W 274 16,1 km/h (3 Bft)
10.01.2014 05:35 3,8 C 92 % 1019,5 hPa 0,2 mm W 273 16,1 km/h (3 Bft)
10.01.2014 05:40 3,7 C 92 % 1019,7 hPa 0,2 mm W 260 11,3 km/h (2 Bft)
10.01.2014 05:45 3,7 C 92 % 1019,7 hPa 0,0 mm W 265 12,9 km/h (3 Bft)
10.01.2014 05:50 3,7 C 92 % 1019,7 hPa 0,2 mm W-NW 285 9,7 km/h (2 Bft)
10.01.2014 05:55 3,6 C 92 % 1019,7 hPa 0,2 mm W 268 11,3 km/h (2 Bft)
10.01.2014 06:00 3,6 C 92 % 1019,8 hPa 0,2 mm W 265 9,7 km/h (2 Bft)
10.01.2014 06:05 3,6 C 92 % 1019,8 hPa 0,2 mm W 280 11,3 km/h (2 Bft)
10.01.2014 06:10 3,5 C 92 % 1019,9 hPa 0,0 mm W-SW 246 11,3 km/h (2 Bft)
10.01.2014 06:15 3,4 C 92 % 1019,9 hPa 0,2 mm W 275 8,0 km/h (2 Bft)
10.01.2014 06:20 3,3 C 93 % 1020,0 hPa 0,2 mm W 275 8,0 km/h (2 Bft)
10.01.2014 06:25 3,3 C 93 % 1020,0 hPa 0,0 mm W 279 6,4 km/h (2 Bft)
10.01.2014 06:30 3,2 C 92 % 1020,1 hPa 0,2 mm W 272 4,8 km/h (1 Bft)
10.01.2014 06:35 3,2 C 92 % 1020,1 hPa 0,2 mm W-NW 288 4,8 km/h (1 Bft)
10.01.2014 06:40 3,1 C 93 % 1020,1 hPa 0,0 mm W-NW 290 6,4 km/h (2 Bft)
10.01.2014 06:45 3,0 C 93 % 1020,2 hPa 0,2 mm W 270 4,8 km/h (1 Bft)
10.01.2014 06:50 2,9 C 93 % 1020,3 hPa 0,2 mm W 270 4,8 km/h (1 Bft)
10.01.2014 06:55 2,9 C 93 % 1020,3 hPa 0,0 mm W 281 4,8 km/h (1 Bft)
10.01.2014 07:00 2,9 C 93 % 1020,3 hPa 0,2 mm W-NW 294 4,8 km/h (1 Bft)
10.01.2014 07:05 2,9 C 93 % 1020,4 hPa 0,0 mm W-NW 288 4,8 km/h (1 Bft)
10.01.2014 07:10 2,9 C 93 % 1020,4 hPa 0,2 mm W 271 6,4 km/h (2 Bft)
10.01.2014 07:15 2,9 C 93 % 1020,4 hPa 0,0 mm W 277 4,8 km/h (1 Bft)
10.01.2014 07:20 2,9 C 93 % 1020,4 hPa 0,0 mm W 276 4,8 km/h (1 Bft)
10.01.2014 07:25 2,9 C 93 % 1020,4 hPa 0,0 mm W 276 3,2 km/h (1 Bft)
10.01.2014 07:30 2,9 C 93 % 1020,4 hPa 0,0 mm W 279 3,2 km/h (1 Bft)
10.01.2014 07:35 3,0 C 93 % 1020,3 hPa 0,0 mm W 269 4,8 km/h (1 Bft)
10.01.2014 07:40 3,0 C 93 % 1020,4 hPa 0,0 mm W 269 4,8 km/h (1 Bft)
10.01.2014 07:45 3,1 C 93 % 1020,5 hPa 0,0 mm W 269 3,2 km/h (1 Bft)
10.01.2014 07:50 3,1 C 93 % 1020,5 hPa 0,0 mm W 268 4,8 km/h (1 Bft)
10.01.2014 07:55 3,1 C 93 % 1020,5 hPa 0,0 mm W 281 8,0 km/h (2 Bft)
10.01.2014 08:00 3,2 C 93 % 1020,6 hPa 0,0 mm W 264 6,4 km/h (2 Bft)
10.01.2014 08:05 3,2 C 93 % 1020,6 hPa 0,0 mm W 261 6,4 km/h (2 Bft)
10.01.2014 08:10 3,2 C 93 % 1020,7 hPa 0,0 mm W 263 4,8 km/h (1 Bft)
10.01.2014 08:15 3,3 C 93 % 1020,7 hPa 0,0 mm W 269 6,4 km/h (2 Bft)
10.01.2014 08:20 3,3 C 93 % 1020,7 hPa 0,0 mm W 265 6,4 km/h (2 Bft)
10.01.2014 08:25 3,3 C 93 % 1020,8 hPa 0,0 mm W-NW 286 4,8 km/h (1 Bft)
10.01.2014 08:30 3,3 C 93 % 1020,8 hPa 0,2 mm W-NW 286 6,4 km/h (2 Bft)
10.01.2014 08:35 3,4 C 93 % 1021,0 hPa 0,0 mm W-SW 254 9,7 km/h (2 Bft)
10.01.2014 08:40 3,4 C 93 % 1021,0 hPa 0,0 mm W 279 11,3 km/h (2 Bft)
10.01.2014 08:45 3,5 C 93 % 1020,9 hPa 0,0 mm W 272 8,0 km/h (2 Bft)
10.01.2014 08:50 3,5 C 93 % 1021,0 hPa 0,0 mm W 271 4,8 km/h (1 Bft)
10.01.2014 08:55 3,5 C 93 % 1021,1 hPa 0,0 mm W 271 3,2 km/h (1 Bft)
10.01.2014 09:00 3,6 C 93 % 1021,1 hPa 0,0 mm W 279 8,0 km/h (2 Bft)
10.01.2014 09:05 3,6 C 93 % 1021,2 hPa 0,0 mm W 279 4,8 km/h (1 Bft)
10.01.2014 09:10 3,7 C 93 % 1021,1 hPa 0,0 mm W 281 6,4 km/h (2 Bft)
10.01.2014 09:15 3,7 C 93 % 1021,1 hPa 0,0 mm W 271 9,7 km/h (2 Bft)
10.01.2014 09:20 3,8 C 93 % 1021,1 hPa 0,0 mm W 264 11,3 km/h (2 Bft)
10.01.2014 09:25 3,9 C 93 % 1021,1 hPa 0,0 mm W-SW 252 12,9 km/h (3 Bft)
10.01.2014 09:30 4,0 C 93 % 1021,1 hPa 0,0 mm W 259 14,5 km/h (3 Bft)
10.01.2014 09:35 4,1 C 93 % 1021,1 hPa 0,0 mm W 264 19,3 km/h (3 Bft)
10.01.2014 09:40 4,2 C 92 % 1021,1 hPa 0,0 mm W 272 16,1 km/h (3 Bft)
10.01.2014 09:45 4,3 C 92 % 1021,2 hPa 0,0 mm W 259 17,7 km/h (3 Bft)
10.01.2014 09:50 4,3 C 92 % 1021,1 hPa 0,0 mm W 267 17,7 km/h (3 Bft)
10.01.2014 09:55 4,5 C 92 % 1021,2 hPa 0,0 mm W-NW 293 17,7 km/h (3 Bft)
10.01.2014 10:00 4,6 C 92 % 1021,2 hPa 0,0 mm W-SW 252 14,5 km/h (3 Bft)
10.01.2014 10:05 4,7 C 91 % 1021,3 hPa 0,0 mm W 263 19,3 km/h (3 Bft)
10.01.2014 10:10 4,8 C 91 % 1021,3 hPa 0,0 mm W 264 16,1 km/h (3 Bft)
10.01.2014 10:15 4,9 C 91 % 1021,4 hPa 0,0 mm W 273 14,5 km/h (3 Bft)
10.01.2014 10:20 4,9 C 91 % 1021,4 hPa 0,0 mm W 279 12,9 km/h (3 Bft)
10.01.2014 10:25 4,9 C 91 % 1021,6 hPa 0,0 mm W-NW 286 12,9 km/h (3 Bft)
10.01.2014 10:30 5,1 C 91 % 1021,6 hPa 0,0 mm W 263 11,3 km/h (2 Bft)
10.01.2014 10:35 5,1 C 90 % 1021,6 hPa 0,0 mm W 269 9,7 km/h (2 Bft)
10.01.2014 10:40 5,1 C 90 % 1021,6 hPa 0,0 mm W 267 9,7 km/h (2 Bft)
10.01.2014 10:45 5,3 C 90 % 1021,6 hPa 0,0 mm W 269 8,0 km/h (2 Bft)
10.01.2014 10:50 5,5 C 90 % 1021,7 hPa 0,0 mm W 267 12,9 km/h (3 Bft)
10.01.2014 10:55 5,8 C 90 % 1021,6 hPa 0,0 mm W 265 12,9 km/h (3 Bft)
10.01.2014 11:00 6,6 C 89 % 1021,7 hPa 0,0 mm W 264 12,9 km/h (3 Bft)
10.01.2014 11:05 7,3 C 89 % 1021,7 hPa 0,0 mm W-NW 303 9,7 km/h (2 Bft)
10.01.2014 11:10 6,9 C 86 % 1021,6 hPa 0,0 mm W 267 11,3 km/h (2 Bft)
10.01.2014 11:15 6,7 C 87 % 1021,6 hPa 0,0 mm W 267 11,3 km/h (2 Bft)
10.01.2014 11:20 6,8 C 86 % 1021,5 hPa 0,0 mm W 260 12,9 km/h (3 Bft)
10.01.2014 11:25 6,7 C 86 % 1021,5 hPa 0,0 mm W-NW 296 12,9 km/h (3 Bft)
10.01.2014 11:30 6,3 C 84 % 1021,4 hPa 0,0 mm W 273 14,5 km/h (3 Bft)
10.01.2014 11:35 6,1 C 84 % 1021,4 hPa 0,0 mm W 273 16,1 km/h (3 Bft)
10.01.2014 11:40 6,0 C 85 % 1021,4 hPa 0,0 mm W 269 16,1 km/h (3 Bft)
10.01.2014 11:45 5,9 C 85 % 1021,3 hPa 0,0 mm W 269 12,9 km/h (3 Bft)
10.01.2014 11:50 5,9 C 83 % 1021,3 hPa 0,0 mm W-NW 288 16,1 km/h (3 Bft)
10.01.2014 11:55 5,9 C 84 % 1021,3 hPa 0,0 mm W 265 12,9 km/h (3 Bft)
10.01.2014 12:00 6,1 C 84 % 1021,3 hPa 0,0 mm W 259 11,3 km/h (2 Bft)
10.01.2014 12:05 6,2 C 84 % 1021,2 hPa 0,0 mm W 269 11,3 km/h (2 Bft)
10.01.2014 12:10 6,2 C 83 % 1021,1 hPa 0,0 mm W 281 14,5 km/h (3 Bft)
10.01.2014 12:15 6,3 C 83 % 1021,1 hPa 0,0 mm W-SW 242 11,3 km/h (2 Bft)
10.01.2014 12:20 6,2 C 82 % 1021,1 hPa 0,0 mm W 275 9,7 km/h (2 Bft)
10.01.2014 12:25 6,2 C 82 % 1021,0 hPa 0,0 mm W-NW 292 11,3 km/h (2 Bft)
10.01.2014 12:30 6,2 C 82 % 1021,0 hPa 0,0 mm W 271 11,3 km/h (2 Bft)
10.01.2014 12:35 6,3 C 82 % 1021,0 hPa 0,0 mm W 277 12,9 km/h (3 Bft)
10.01.2014 12:40 6,4 C 82 % 1020,9 hPa 0,0 mm W-NW 286 11,3 km/h (2 Bft)
10.01.2014 12:45 6,4 C 81 % 1020,9 hPa 0,0 mm W 275 9,7 km/h (2 Bft)
10.01.2014 12:50 6,5 C 81 % 1020,8 hPa 0,0 mm W 273 9,7 km/h (2 Bft)
10.01.2014 12:55 6,6 C 81 % 1020,7 hPa 0,0 mm W-NW 286 9,7 km/h (2 Bft)
10.01.2014 13:00 6,7 C 80 % 1020,7 hPa 0,0 mm W 271 14,5 km/h (3 Bft)
10.01.2014 13:05 6,7 C 80 % 1020,7 hPa 0,0 mm W-SW 244 11,3 km/h (2 Bft)
10.01.2014 13:10 6,8 C 79 % 1020,6 hPa 0,0 mm W 268 9,7 km/h (2 Bft)
10.01.2014 13:15 6,8 C 79 % 1020,6 hPa 0,0 mm W 263 12,9 km/h (3 Bft)
10.01.2014 13:20 6,9 C 79 % 1020,6 hPa 0,0 mm W 268 9,7 km/h (2 Bft)
10.01.2014 13:25 6,9 C 79 % 1020,5 hPa 0,0 mm W-NW 285 6,4 km/h (2 Bft)
10.01.2014 13:30 6,9 C 81 % 1020,4 hPa 0,0 mm W 281 3,2 km/h (1 Bft)
10.01.2014 13:35 6,8 C 79 % 1020,3 hPa 0,0 mm NW 311 6,4 km/h (2 Bft)
10.01.2014 13:40 6,9 C 80 % 1020,4 hPa 0,0 mm W 278 4,8 km/h (1 Bft)
10.01.2014 13:45 6,9 C 78 % 1020,3 hPa 0,0 mm W 269 9,7 km/h (2 Bft)
10.01.2014 13:50 6,9 C 79 % 1020,3 hPa 0,0 mm W 279 6,4 km/h (2 Bft)
10.01.2014 13:55 6,8 C 79 % 1020,3 hPa 0,0 mm W-NW 293 6,4 km/h (2 Bft)
10.01.2014 14:00 6,8 C 80 % 1020,3 hPa 0,0 mm W 280 6,4 km/h (2 Bft)
10.01.2014 14:05 6,8 C 80 % 1020,3 hPa 0,0 mm W 279 8,0 km/h (2 Bft)
10.01.2014 14:10 6,9 C 80 % 1020,3 hPa 0,0 mm W-NW 292 6,4 km/h (2 Bft)
10.01.2014 14:15 6,9 C 80 % 1020,3 hPa 0,0 mm W-NW 292 3,2 km/h (1 Bft)
10.01.2014 14:20 6,8 C 80 % 1020,4 hPa 0,0 mm W-NW 292 1,6 km/h (1 Bft)
10.01.2014 14:25 6,8 C 80 % 1020,4 hPa 0,0 mm W-NW 290 3,2 km/h (1 Bft)
10.01.2014 14:30 6,8 C 81 % 1020,3 hPa 0,0 mm W-NW 290 3,2 km/h (1 Bft)
10.01.2014 14:35 6,8 C 80 % 1020,4 hPa 0,0 mm W-NW 288 9,7 km/h (2 Bft)
10.01.2014 14:40 6,7 C 80 % 1020,6 hPa 0,0 mm W 262 8,0 km/h (2 Bft)
10.01.2014 14:45 6,7 C 80 % 1020,6 hPa 0,0 mm W 271 9,7 km/h (2 Bft)
10.01.2014 14:50 6,6 C 80 % 1020,7 hPa 0,0 mm W 268 8,0 km/h (2 Bft)
10.01.2014 14:55 6,6 C 81 % 1020,7 hPa 0,0 mm W 272 6,4 km/h (2 Bft)
10.01.2014 15:00 6,5 C 81 % 1020,8 hPa 0,0 mm W 268 8,0 km/h (2 Bft)
10.01.2014 15:05 6,4 C 82 % 1020,8 hPa 0,0 mm W 278 6,4 km/h (2 Bft)
10.01.2014 15:10 6,5 C 82 % 1020,8 hPa 0,0 mm W 277 3,2 km/h (1 Bft)
10.01.2014 15:15 6,4 C 82 % 1020,8 hPa 0,0 mm W 275 1,6 km/h (1 Bft)
10.01.2014 15:20 6,4 C 82 % 1020,9 hPa 0,0 mm W 275 1,6 km/h (1 Bft)
10.01.2014 15:25 6,4 C 82 % 1020,9 hPa 0,0 mm W 275 3,2 km/h (1 Bft)
10.01.2014 15:30 6,3 C 83 % 1021,0 hPa 0,0 mm W-SW 246 3,2 km/h (1 Bft)
10.01.2014 15:35 6,3 C 83 % 1021,0 hPa 0,0 mm W-SW 246 3,2 km/h (1 Bft)
10.01.2014 15:40 6,2 C 83 % 1021,0 hPa 0,0 mm W-SW 246 1,6 km/h (1 Bft)
10.01.2014 15:45 6,2 C 84 % 1021,1 hPa 0,0 mm W 277 4,8 km/h (1 Bft)
10.01.2014 15:50 6,2 C 84 % 1021,1 hPa 0,0 mm W 277 3,2 km/h (1 Bft)
10.01.2014 15:55 6,0 C 85 % 1021,1 hPa 0,0 mm W 277 1,6 km/h (1 Bft)
10.01.2014 16:00 5,9 C 86 % 1021,1 hPa 0,0 mm W 277 1,6 km/h (1 Bft)
10.01.2014 16:05 5,8 C 86 % 1021,1 hPa 0,0 mm W 277 0,0 km/h (0 Bft)
10.01.2014 16:10 5,8 C 86 % 1021,0 hPa 0,0 mm W 277 1,6 km/h (1 Bft)
10.01.2014 16:15 5,7 C 86 % 1021,0 hPa 0,0 mm W 277 1,6 km/h (1 Bft)
10.01.2014 16:20 5,6 C 86 % 1021,0 hPa 0,0 mm W 277 0,0 km/h (0 Bft)
10.01.2014 16:25 5,4 C 87 % 1021,0 hPa 0,0 mm W 277 1,6 km/h (1 Bft)
10.01.2014 16:30 5,0 C 87 % 1021,0 hPa 0,0 mm N 0 0,0 km/h (0 Bft)
10.01.2014 16:35 4,5 C 88 % 1021,0 hPa 0,0 mm N 0 0,0 km/h (0 Bft)
10.01.2014 16:40 4,0 C 88 % 1021,0 hPa 0,0 mm N 0 0,0 km/h (0 Bft)
10.01.2014 16:45 3,7 C 88 % 1021,0 hPa 0,0 mm N 0 0,0 km/h (0 Bft)
10.01.2014 16:50 3,3 C 89 % 1021,1 hPa 0,0 mm N 0 0,0 km/h (0 Bft)
10.01.2014 16:55 3,2 C 90 % 1021,1 hPa 0,0 mm N 0 0,0 km/h (0 Bft)
10.01.2014 17:00 3,0 C 90 % 1021,1 hPa 0,0 mm N 0 0,0 km/h (0 Bft)
10.01.2014 17:05 3,1 C 91 % 1021,1 hPa 0,0 mm N 0 0,0 km/h (0 Bft)
10.01.2014 17:10 2,9 C 91 % 1021,2 hPa 0,0 mm N 0 0,0 km/h (0 Bft)
10.01.2014 17:15 3,1 C 91 % 1021,3 hPa 0,0 mm N 0 0,0 km/h (0 Bft)
10.01.2014 17:20 2,7 C 91 % 1021,3 hPa 0,0 mm N 0 0,0 km/h (0 Bft)
10.01.2014 17:25 2,7 C 91 % 1021,4 hPa 0,0 mm W 277 0,0 km/h (0 Bft)
10.01.2014 17:30 2,8 C 92 % 1021,4 hPa 0,0 mm W 277 0,0 km/h (0 Bft)
10.01.2014 17:35 3,1 C 92 % 1021,3 hPa 0,0 mm W 277 0,0 km/h (0 Bft)
10.01.2014 17:40 3,1 C 91 % 1021,4 hPa 0,0 mm W 277 1,6 km/h (1 Bft)
10.01.2014 17:45 3,2 C 91 % 1021,4 hPa 0,0 mm W 277 3,2 km/h (1 Bft)
10.01.2014 17:50 3,3 C 91 % 1021,5 hPa 0,0 mm W 277 1,6 km/h (1 Bft)
10.01.2014 17:55 3,3 C 91 % 1021,5 hPa 0,0 mm W 277 0,0 km/h (0 Bft)
10.01.2014 18:00 3,2 C 91 % 1021,5 hPa 0,0 mm W 277 0,0 km/h (0 Bft)
10.01.2014 18:05 3,1 C 91 % 1021,5 hPa 0,0 mm W 277 0,0 km/h (0 Bft)
10.01.2014 18:10 3,1 C 92 % 1021,4 hPa 0,0 mm W 277 0,0 km/h (0 Bft)
10.01.2014 18:15 3,0 C 92 % 1021,4 hPa 0,0 mm W 277 0,0 km/h (0 Bft)
10.01.2014 18:20 2,8 C 91 % 1021,5 hPa 0,0 mm W 277 0,0 km/h (0 Bft)
10.01.2014 18:25 2,7 C 92 % 1021,6 hPa 0,0 mm W 277 0,0 km/h (0 Bft)
10.01.2014 18:30 2,6 C 92 % 1021,5 hPa 0,0 mm W 277 1,6 km/h (1 Bft)
10.01.2014 18:35 2,3 C 92 % 1021,6 hPa 0,0 mm W 277 0,0 km/h (0 Bft)
10.01.2014 18:40 2,4 C 92 % 1021,5 hPa 0,0 mm W 277 1,6 km/h (1 Bft)
10.01.2014 18:45 2,6 C 92 % 1021,6 hPa 0,0 mm W 277 1,6 km/h (1 Bft)
10.01.2014 18:50 2,7 C 92 % 1021,6 hPa 0,0 mm W 277 3,2 km/h (1 Bft)
10.01.2014 18:55 2,5 C 92 % 1021,6 hPa 0,0 mm W 277 0,0 km/h (0 Bft)
10.01.2014 19:00 2,3 C 92 % 1021,8 hPa 0,0 mm W 277 1,6 km/h (1 Bft)
10.01.2014 19:05 2,3 C 92 % 1021,7 hPa 0,0 mm W 277 3,2 km/h (1 Bft)
10.01.2014 19:10 2,3 C 93 % 1021,6 hPa 0,0 mm W 277 0,0 km/h (0 Bft)
10.01.2014 19:15 2,2 C 92 % 1021,7 hPa 0,0 mm W 277 0,0 km/h (0 Bft)
10.01.2014 19:20 2,2 C 92 % 1021,8 hPa 0,0 mm W 277 0,0 km/h (0 Bft)
10.01.2014 19:25 2,2 C 93 % 1021,8 hPa 0,0 mm W 277 0,0 km/h (0 Bft)
10.01.2014 19:30 2,2 C 93 % 1021,7 hPa 0,0 mm W 277 0,0 km/h (0 Bft)
10.01.2014 19:35 2,3 C 93 % 1021,6 hPa 0,0 mm W 277 0,0 km/h (0 Bft)
10.01.2014 19:40 2,3 C 93 % 1021,6 hPa 0,0 mm W 277 0,0 km/h (0 Bft)
10.01.2014 19:45 2,2 C 93 % 1021,8 hPa 0,0 mm W 277 3,2 km/h (1 Bft)
10.01.2014 19:50 2,2 C 93 % 1021,7 hPa 0,0 mm W 277 1,6 km/h (1 Bft)
10.01.2014 19:55 2,2 C 93 % 1021,8 hPa 0,0 mm W 277 0,0 km/h (0 Bft)
10.01.2014 20:00 2,3 C 93 % 1021,8 hPa 0,0 mm W 277 0,0 km/h (0 Bft)
10.01.2014 20:05 2,2 C 93 % 1021,8 hPa 0,0 mm W 277 1,6 km/h (1 Bft)
10.01.2014 20:10 2,2 C 93 % 1021,7 hPa 0,0 mm W 277 3,2 km/h (1 Bft)
10.01.2014 20:15 1,9 C 93 % 1021,7 hPa 0,0 mm W 277 3,2 km/h (1 Bft)
10.01.2014 20:20 1,7 C 93 % 1021,7 hPa 0,0 mm W 277 3,2 km/h (1 Bft)
10.01.2014 20:25 1,7 C 93 % 1021,7 hPa 0,0 mm W 277 1,6 km/h (1 Bft)
10.01.2014 20:30 1,5 C 93 % 1021,6 hPa 0,0 mm W 277 0,0 km/h (0 Bft)
10.01.2014 20:35 1,2 C 93 % 1021,7 hPa 0,0 mm W 277 3,2 km/h (1 Bft)
10.01.2014 20:40 1,2 C 93 % 1021,6 hPa 0,0 mm W 277 0,0 km/h (0 Bft)
10.01.2014 20:45 1,0 C 93 % 1021,7 hPa 0,0 mm W 277 3,2 km/h (1 Bft)
10.01.2014 20:50 1,0 C 93 % 1021,8 hPa 0,0 mm W 277 1,6 km/h (1 Bft)
10.01.2014 20:55 1,0 C 93 % 1021,7 hPa 0,0 mm W 277 0,0 km/h (0 Bft)
10.01.2014 21:00 0,6 C 93 % 1021,8 hPa 0,0 mm W 277 0,0 km/h (0 Bft)
10.01.2014 21:05 0,5 C 93 % 1021,8 hPa 0,0 mm W 277 0,0 km/h (0 Bft)
10.01.2014 21:10 0,4 C 93 % 1021,7 hPa 0,0 mm W 277 0,0 km/h (0 Bft)
10.01.2014 21:15 0,4 C 93 % 1021,7 hPa 0,0 mm W 277 0,0 km/h (0 Bft)
10.01.2014 21:20 0,3 C 93 % 1021,6 hPa 0,0 mm W 277 0,0 km/h (0 Bft)
10.01.2014 21:25 0,3 C 93 % 1021,6 hPa 0,0 mm W 277 1,6 km/h (1 Bft)
10.01.2014 21:30 0,2 C 93 % 1021,6 hPa 0,0 mm W 277 1,6 km/h (1 Bft)
10.01.2014 21:35 0,4 C 93 % 1021,5 hPa 0,0 mm W 277 3,2 km/h (1 Bft)
10.01.2014 21:40 0,1 C 93 % 1021,4 hPa 0,0 mm W 277 0,0 km/h (0 Bft)
10.01.2014 21:45 -0,1 C 93 % 1021,5 hPa 0,0 mm W 277 0,0 km/h (0 Bft)
10.01.2014 21:50 -0,2 C 93 % 1021,5 hPa 0,0 mm W 277 1,6 km/h (1 Bft)
10.01.2014 21:55 -0,2 C 93 % 1021,4 hPa 0,0 mm W 277 1,6 km/h (1 Bft)
10.01.2014 22:00 -0,1 C 93 % 1021,5 hPa 0,0 mm W 277 0,0 km/h (0 Bft)
10.01.2014 22:05 -0,1 C 93 % 1021,5 hPa 0,0 mm W 277 0,0 km/h (0 Bft)
10.01.2014 22:10 -0,2 C 93 % 1021,5 hPa 0,0 mm W 277 1,6 km/h (1 Bft)
10.01.2014 22:15 -0,1 C 93 % 1021,5 hPa 0,0 mm W 277 4,8 km/h (1 Bft)
10.01.2014 22:20 -0,1 C 93 % 1021,5 hPa 0,0 mm W 277 1,6 km/h (1 Bft)
10.01.2014 22:25 -0,3 C 93 % 1021,4 hPa 0,0 mm W 277 0,0 km/h (0 Bft)
10.01.2014 22:30 -0,2 C 93 % 1021,4 hPa 0,0 mm W 277 1,6 km/h (1 Bft)
10.01.2014 22:35 -0,2 C 93 % 1021,5 hPa 0,0 mm W 277 0,0 km/h (0 Bft)
10.01.2014 22:40 -0,2 C 93 % 1021,5 hPa 0,0 mm W 277 0,0 km/h (0 Bft)
10.01.2014 22:45 -0,3 C 93 % 1021,3 hPa 0,0 mm W 277 1,6 km/h (1 Bft)
10.01.2014 22:50 -0,4 C 93 % 1021,3 hPa 0,0 mm W 277 1,6 km/h (1 Bft)
10.01.2014 22:55 -0,5 C 93 % 1021,4 hPa 0,0 mm W 277 1,6 km/h (1 Bft)
10.01.2014 23:00 -0,4 C 93 % 1021,3 hPa 0,0 mm W 277 0,0 km/h (0 Bft)
10.01.2014 23:05 -0,3 C 93 % 1021,3 hPa 0,0 mm W 277 3,2 km/h (1 Bft)
10.01.2014 23:10 -0,3 C 93 % 1021,2 hPa 0,0 mm W 277 1,6 km/h (1 Bft)
10.01.2014 23:15 -0,3 C 93 % 1021,3 hPa 0,0 mm W 277 3,2 km/h (1 Bft)
10.01.2014 23:20 -0,3 C 93 % 1021,2 hPa 0,0 mm W 277 3,2 km/h (1 Bft)
10.01.2014 23:25 -0,3 C 93 % 1021,2 hPa 0,0 mm W 277 0,0 km/h (0 Bft)
10.01.2014 23:30 -0,3 C 93 % 1021,3 hPa 0,0 mm W 277 0,0 km/h (0 Bft)
10.01.2014 23:35 -0,3 C 93 % 1021,4 hPa 0,0 mm W 277 0,0 km/h (0 Bft)
10.01.2014 23:40 -0,3 C 93 % 1021,5 hPa 0,0 mm W 277 0,0 km/h (0 Bft)
10.01.2014 23:45 -0,4 C 93 % 1021,3 hPa 0,0 mm W 277 0,0 km/h (0 Bft)
10.01.2014 23:50 -0,4 C 93 % 1021,4 hPa 0,0 mm W 277 0,0 km/h (0 Bft)
10.01.2014 23:55 -0,4 C 93 % 1021,4 hPa 0,0 mm W 277 0,0 km/h (0 Bft)
_ Min-Zeit 22:55 01:30 00:00 - - - 16:05
Minimum _ -0,5 C 75 % 1013,3 hPa - - - 0,0 km/h (0 Bft)
_ Max-Zeit 01:50 06:20 19:00 02:55 - - 02:20
Maximum _ 9,1 C 93 % 1021,8 hPa 0,4 mm - - 29,0 km/h
W (5 Bft)
Durchschnitt _ 4,1 C 89 % 1020,0 hPa #10,0 mm W - 7,2 km/h (2 Bft)